Terug naar catalogus

STARLINK-36260

ActiefCommunicatieSSO
NORAD 67732·PAYLOAD·🇺🇸 United States

Gelanceerd Feb 11, 2026 vanaf Vandenberg Space Force Base

Loading…

Volgende Passages (komende 24 uur)

TLE

VersSource: CelesTrak SupGP

Epoch: Sep 15, 2026, 02:39 UTC

1 67732C 26026M   26258.11090278  .00024110  00000+0  74830-3 0  2582
2 67732  97.2845 310.0179 0000901  85.2335 305.1965 15.33432533    11

Volg STARLINK-36260 in realtime met AllMySat

Download on the App Store